Weather History for KMGY - November, 2013

Change the Weather History Date:

Monday, November 18, 2013

  Actual Average (KFFO) Record (KFFO)
Temperature  
Mean Temperature 44 °F -  
Max Temperature 51 °F 49 °F 68 °F (2004)
Min Temperature 36 °F 32 °F 10 °F (2014)
Degree Days  
Heating Degree Days 21    
Moisture  
Dew Point 32 °F    
Average Humidity 61    
Maximum Humidity 76    
Minimum Humidity 44    
Precipitation  
Precipitation 0.00 in - - ()
Sea Level Pressure  
Sea Level Pressure 29.99 in    
Wind  
Wind Speed 11 mph (West)    
Max Wind Speed 18 mph    
Max Gust Speed 29 mph    
Visibility 10 miles    
Events      
Averages and records for this station are not official NWS values.
T = Trace of Precipitation, MM = Missing Value Source: NWS Daily Summary

Daily Weather History Graph

Daily Weather History Graph

Search for Another Location

Airport or City:

Trip Planner

Search our weather history database for the weather conditions in past years. The results will help you decide how hot, cold, wet, or windy it might be!

Date:

Astronomy

Nov. 18, 2013 Rise Set
Actual Time 7:24 AM EST 5:19 PM EST
Civil Twilight 6:55 AM EST 5:48 PM EST
Nautical Twilight 6:23 AM EST 6:20 PM EST
Astronomical Twilight 5:51 AM EST 6:52 PM EST
Moon 6:20 PM EST (11/18) 8:12 AM EST (11/18)
Length of Visible Light 10h 52m
Length of Day
9h 54m
Full, 99% of the Moon is Illuminated
Nov 18
Full
Nov 25
Last Quarter
Dec 2
New
Dec 9
First Quarter
Dec 17
Full

Hourly Weather History & Observations

Time (EST) Temp. Windchill Dew Point Humidity Pressure Visibility Wind Dir Wind Speed Gust Speed Precip Events Conditions
12:53 AM 50.0 °F - 37.0 °F 61% 29.80 in 10.0 mi WSW 10.4 mph - N/A   Clear
1:53 AM 48.9 °F - 37.9 °F 66% 29.81 in 10.0 mi West 10.4 mph 20.7 mph N/A   Clear
2:53 AM 46.9 °F - 37.9 °F 71% 29.84 in 10.0 mi West 9.2 mph - N/A   Clear
3:53 AM 46.0 °F 40.6 °F 36.0 °F 68% 29.86 in 10.0 mi West 11.5 mph 18.4 mph N/A   Clear
4:53 AM 45.0 °F 40.6 °F 36.0 °F 71% 29.89 in 10.0 mi WSW 8.1 mph 18.4 mph N/A   Clear
5:53 AM 43.0 °F 38.8 °F 34.0 °F 71% 29.90 in 10.0 mi WSW 6.9 mph - N/A   Clear
6:53 AM 42.1 °F 37.7 °F 34.0 °F 73% 29.90 in 10.0 mi SW 6.9 mph - N/A   Clear
7:53 AM 42.1 °F 35.2 °F 35.1 °F 76% 29.92 in 10.0 mi SW 12.7 mph - N/A   Clear
8:53 AM 44.1 °F 37.4 °F 36.0 °F 73% 29.93 in 10.0 mi WSW 13.8 mph 21.9 mph N/A   Clear
9:53 AM 46.0 °F 40.6 °F 36.0 °F 68% 29.95 in 10.0 mi West 11.5 mph 21.9 mph N/A   Clear
10:53 AM 48.0 °F - 33.1 °F 56% 29.96 in 10.0 mi West 13.8 mph 25.3 mph N/A   Clear
11:53 AM 48.9 °F - 32.0 °F 52% 29.97 in 10.0 mi West 16.1 mph 26.5 mph N/A   Clear
12:53 PM 50.0 °F - 30.9 °F 48% 29.97 in 10.0 mi West 16.1 mph 25.3 mph N/A   Clear
1:53 PM 51.1 °F - 30.9 °F 46% 29.98 in 10.0 mi West 12.7 mph 26.5 mph N/A   Scattered Clouds
2:53 PM 50.0 °F - 30.0 °F 46% 30.00 in 10.0 mi West 18.4 mph 26.5 mph N/A   Scattered Clouds
3:53 PM 50.0 °F - 28.9 °F 44% 30.03 in 10.0 mi WNW 17.3 mph 28.8 mph N/A   Clear
4:53 PM 48.0 °F - 28.0 °F 46% 30.05 in 10.0 mi West 12.7 mph - N/A   Clear
5:53 PM 45.0 °F 39.3 °F 27.0 °F 49% 30.09 in 10.0 mi WNW 11.5 mph - N/A   Clear
6:53 PM 44.1 °F 39.0 °F 28.0 °F 53% 30.12 in 10.0 mi WNW 9.2 mph - N/A   Scattered Clouds
7:53 PM 42.1 °F 36.1 °F 28.9 °F 60% 30.12 in 10.0 mi WNW 10.4 mph - N/A   Clear
8:53 PM 41.0 °F 35.2 °F 28.0 °F 60% 30.14 in 10.0 mi WNW 9.2 mph - N/A   Clear
9:53 PM 37.9 °F 33.5 °F 28.0 °F 68% 30.17 in 10.0 mi WNW 5.8 mph - N/A   Clear
10:53 PM 37.9 °F 33.5 °F 28.0 °F 68% 30.18 in 10.0 mi NW 5.8 mph - N/A   Clear
11:53 PM 36.0 °F - 27.0 °F 70% 30.19 in 10.0 mi Calm Calm - N/A   Clear